Regional Weather Roundup
Issued by NWS

Home | Current Version | Previous Version | Text Only | Print | Product List | Glossary On
Versions: 1 2 3 4 5 6 7 8 9 10 11 12 13 14 15 16 17 18 19 20 21 22 23 24 25 26 27 28 29 30 31 32 33 34 35 36 37 38 39 40 41 42 43 44 45 46 47 48 49 50
000
ASUS45 KBOI 122210
RWRID

IDAHO REGIONAL WEATHER ROUNDUP
NATIONAL WEATHER SERVICE BOISE ID
300 PM MST TUE NOV 12 2019

NOTE: "FAIR" INDICATES FEW OR NO CLOUDS BELOW 12000 FEET
WITH NO SIGNIFICANT WEATHER AND/OR OBSTRUCTIONS TO VISIBILITY

IDZ012-014-122300-
SOUTHWEST IDAHO


CITY           SKY/WX    TMP DP  RH WIND       PRES   REMARKS
BOISE          CLOUDY    49  22  34 NW8       30.13F
CALDWELL       CLOUDY    47  22  37 W7        30.16R
MOUNTAIN HOME  CLOUDY    55  19  24 SW3       30.10F
$$

IDZ016-017-122300-
SOUTHCENTRAL IDAHO


CITY           SKY/WX    TMP DP  RH WIND       PRES   REMARKS
BURLEY         MOSUNNY   58  20  22 N3        30.10F
JEROME         MOSUNNY   57  19  22 NE5       30.11
TWIN FALLS     MOSUNNY   55  19  24 E9        30.10F
$$

IDZ019>023-122300-
SOUTHEAST IDAHO


CITY           SKY/WX    TMP DP  RH WIND       PRES   REMARKS
IDAHO FALLS    CLOUDY    48  16  27 S6        30.13F
POCATELLO      MOSUNNY   54  12  18 S15       30.14S
REXBURG        CLOUDY    44  16  32 CALM      30.13F
$$

IDZ006-010-011-018-031-032-122300-
CENTRAL IDAHO MOUNTAINS


CITY           SKY/WX    TMP DP  RH WIND       PRES   REMARKS
MCCALL         CLOUDY    43  20  39 E5        30.10F
HAILEY         MOSUNNY   50  21  32 SE12      30.13F
STANLEY          N/A     51  13  21 CALM      30.12F
SALMON         PTSUNNY   41  20  43 CALM      30.06F
CHALLIS        PTSUNNY   40  18  41 CALM      30.06F
$$

IDZ002-004-006-007-026-122300-
NORTHERN IDAHO


CITY           SKY/WX    TMP DP  RH WIND       PRES   REMARKS
LEWISTON       LGT RAIN  45  37  73 MISG      30.05R
LOWELL           N/A     43  38  82 CALM      30.06F
COEUR D`ALENE  LGT SNOW  33  30  88 N5        30.05R FOG     WCI  29
MULLAN PASS    SNOW      30  28  92 SW9       29.94S VSB 1/4 WCI  22
$$



USA.gov is the U.S. government's official web portal to all federal, state and local government web resources and services.